Home > Weather > Monaco > Past weeks

Flag for Monaco Weather for the Past 2 Weeks in Monaco, Monaco

Now
43 °F

Clear.


Feels Like: 37 °F
Forecast: 37 / 53 °F
Wind: 10 mph from Northwest

Location: Nice Airport

Current Time: Feb 12, 2016 at 6:53:41 AM

Latest Report: Feb 12, 2016 at 6:00 AM


Visibility: 10 mi

Pressure: 29.68 "Hg

Humidity: 61%

Dew point: 30 °F

Location of MonacoLocation

Historic Weather in Monaco — Graph

°F

Monaco Temperature Yesterday

Maximum temperature yesterday: 55 °F (at 11:30 AM)
Minimum temperature yesterday: 41 °F (at 6:30 AM)
Average temperature yesterday: 49 °F

High & Low Weather Summary for the Past Weeks

 TemperatureHumidityPressure
High68 °F (Feb 3, 2:00 PM)94% (Feb 9, 6:00 PM)30.48 "Hg (Feb 9, 6:00 PM)
Low41 °F (Feb 4, 6:00 AM)12% (Feb 4, 12:00 AM)29.45 "Hg (Feb 9, 11:30 PM)
Average53 °F65%30.08 "Hg
* Reported Jan 28 4:30 AM — Feb 12 4:30 AM, Monaco, Weather by CustomWeather, © 2016

Note: Actual official high and low records may vary slightly from our data, if they occured in-between our weather recording intervals... More about our weather records

Advertising

Monaco Weather History for the Previous 24 Hours

 ConditionsComfort  
Time TempWeatherWind HumidityBarometerVisibility
4:30 AM
Fri, Feb 12
43 °FClear.9 mph61%29.68 "Hg10 mi
4:00 AM41 °FClear.6 mph66%29.68 "Hg10 mi
3:30 AM41 °FPassing clouds.9 mph66%29.68 "HgN/A
3:00 AM41 °FPassing clouds.10 mph70%29.68 "HgN/A
2:30 AM41 °FPassing clouds.8 mph66%29.71 "HgN/A
2:00 AM43 °FPassing clouds.9 mph61%29.71 "HgN/A
1:00 AM43 °FPassing clouds.5 mph61%29.71 "HgN/A
12:00 AM43 °FPassing clouds.7 mph66%29.71 "HgN/A
11:00 PM
Thu, Feb 11
45 °FPassing clouds.6 mph66%29.74 "HgN/A
10:30 PM45 °FPassing clouds.6 mph57%29.74 "HgN/A
10:00 PM45 °FPassing clouds.5 mph61%29.74 "HgN/A
9:30 PM46 °FPassing clouds.6 mph53%29.74 "HgN/A
9:00 PM46 °FPassing clouds.6 mph53%29.77 "HgN/A
8:30 PM48 °FPassing clouds.5 mph54%29.77 "HgN/A
8:00 PM50 °FPassing clouds.5 mph50%29.74 "HgN/A
7:30 PM48 °FClear.7 mph54%29.74 "Hg10 mi
7:00 PM50 °FPassing clouds.3 mph50%29.74 "HgN/A
6:30 PM52 °FPassing clouds.5 mph47%29.74 "HgN/A
6:00 PM54 °FPassing clouds.7 mph38%29.74 "HgN/A
5:30 PM54 °FPassing clouds.6 mph38%29.74 "HgN/A
5:00 PM54 °FPassing clouds.6 mph38%29.74 "HgN/A
4:30 PM55 °FPassing clouds.6 mph33%29.74 "HgN/A
4:00 PM55 °FPassing clouds.6 mph38%29.74 "HgN/A
3:30 PM55 °FPassing clouds.5 mph36%29.77 "HgN/A
3:00 PM55 °FPassing clouds.6 mph36%29.74 "HgN/A
2:30 PM55 °FPassing clouds.7 mph33%29.74 "HgN/A
2:00 PM55 °FPassing clouds.9 mph38%29.77 "HgN/A
1:30 PM55 °FSunny.10 mph38%29.77 "Hg10 mi
1:00 PM54 °FSunny.10 mph41%29.77 "Hg10 mi
12:30 PM55 °FSunny.6 mph36%29.80 "Hg10 mi
12:00 PM55 °FPassing clouds.5 mph31%29.77 "HgN/A
11:30 AM55 °FPassing clouds.7 mph28%29.77 "HgN/A
11:00 AM54 °FSunny.10 mph28%29.77 "Hg10 mi
10:30 AM52 °FSunny.12 mph28%29.77 "Hg10 mi
10:00 AM48 °FPassing clouds.10 mph34%29.77 "HgN/A
9:30 AM48 °FSunny.9 mph34%29.77 "Hg10 mi
9:00 AM45 °FPassing clouds.9 mph39%29.77 "HgN/A
8:30 AM43 °FSunny.10 mph39%29.77 "Hg10 mi
8:00 AM41 °FPassing clouds.12 mph45%29.74 "HgN/A
7:30 AM43 °FPassing clouds.13 mph39%29.74 "HgN/A
7:00 AM43 °FClear.12 mph39%29.74 "Hg10 mi
6:30 AM41 °FPassing clouds.7 mph45%29.74 "HgN/A
6:00 AM43 °FPassing clouds.8 mph42%29.74 "HgN/A
Weather by CustomWeather, © 2016

See weather overviewHow to use our weather pages